Weather History for PANC - October, 2012

Change the Weather History Date:

Tuesday, October 9, 2012

  Actual Average Record
Temperature  
Mean Temperature 47 °F 39 °F  
Max Temperature 49 °F 44 °F 64 °F (2006)
Min Temperature 44 °F 33 °F 17 °F (1965)
Degree Days  
Heating Degree Days 18    
Month to date heating degree days 181  
Since 1 July heating degree days 1246  
Cooling Degree Days 0    
Month to date cooling degree days 0  
Year to date cooling degree days 0  
Moisture  
Dew Point 44 °F    
Average Humidity 90    
Maximum Humidity 93    
Minimum Humidity 86    
Precipitation  
Precipitation 0.05 in 0.08 in 0.67 in (1983)
Month to date precipitation 2.42 0.78  
Year to date precipitation 19.14 13.06  
Snow  
Snow 0.00 in 0.20 in 4.60 in (1983)
Month to date snowfall 0.0 1.4  
Since 1 June snowfall 0.2 1.8  
Since 1 July snowfall 0.2 1.8  
Snow Depth 0.00 in    
Sea Level Pressure  
Sea Level Pressure 30.14 in    
Wind  
Wind Speed 4 mph (NNW)    
Max Wind Speed 7 mph    
Max Gust Speed -    
Visibility 5 miles    
Events Rain    
T = Trace of Precipitation, MM = Missing Value Source: NWS Daily Summary

Daily Weather History Graph

Daily Weather History Graph

Search for Another Location

Airport or City:

Trip Planner

Search our weather history database for the weather conditions in past years. The results will help you decide how hot, cold, wet, or windy it might be!

Date:

Astronomy

Oct. 09, 2012 Rise Set
Actual Time 8:28 AM AKDT 7:04 PM AKDT
Civil Twilight 7:45 AM AKDT 7:47 PM AKDT
Nautical Twilight 6:55 AM AKDT 8:37 PM AKDT
Astronomical Twilight 6:03 AM AKDT 9:28 PM AKDT
Moon 12:38 AM AKDT (10/9) 5:02 PM AKDT (10/9)
Length of Visible Light 12h 02m
Length of Day
10h 35m
Waning Crescent, 35% of the Moon is Illuminated
Oct 9
Waning Crescent
Oct 15
New
Oct 21
First Quarter
Oct 29
Full
Nov 6
Last Quarter

Hourly Weather History & Observations

Time (AKDT) Temp. Windchill Dew Point Humidity Pressure Visibility Wind Dir Wind Speed Gust Speed Precip Events Conditions
12:53 AM 46.9 °F - 44.1 °F 90% 30.18 in 2.0 mi Calm Calm - N/A   Overcast
1:53 AM 46.9 °F - 45.0 °F 93% 30.18 in 3.0 mi Calm Calm - N/A   Overcast
2:53 AM 46.9 °F - 44.1 °F 90% 30.17 in 5.0 mi Calm Calm - N/A   Overcast
3:41 AM 46.4 °F 45.2 °F 44.6 °F 93% 30.16 in 0.8 mi WNW 3.5 mph - N/A   Overcast
3:53 AM 46.9 °F - 45.0 °F 93% 30.17 in 0.8 mi WNW 3.5 mph - N/A   Overcast
4:53 AM 46.9 °F - 45.0 °F 93% 30.16 in 0.5 mi Calm Calm - 0.01 in   Light Drizzle
5:53 AM 46.0 °F 44.8 °F 44.1 °F 93% 30.15 in 0.8 mi NNW 3.5 mph - 0.00 in   Light Drizzle
6:53 AM 46.0 °F 43.1 °F 44.1 °F 93% 30.15 in 0.8 mi NNW 5.8 mph - 0.00 in   Light Drizzle
7:53 AM 46.0 °F 43.1 °F 44.1 °F 93% 30.15 in 0.8 mi NNW 5.8 mph - 0.01 in   Light Drizzle
8:16 AM 46.4 °F 43.5 °F 44.6 °F 93% 30.15 in 0.8 mi NNW 5.8 mph - 0.01 in Rain Light Rain
8:53 AM 45.0 °F 42.6 °F 43.0 °F 93% 30.15 in 0.8 mi NNW 4.6 mph - 0.01 in Rain Light Rain
9:14 AM 44.6 °F 41.4 °F 42.8 °F 93% 30.14 in 0.8 mi NNW 5.8 mph - 0.01 in   Overcast
9:53 AM 45.0 °F 42.6 °F 43.0 °F 93% 30.15 in 0.8 mi NNW 4.6 mph - 0.01 in   Overcast
10:00 AM 46.4 °F 45.2 °F 44.6 °F 93% 30.15 in 2.0 mi North 3.5 mph - N/A   Overcast
10:22 AM 46.4 °F 45.2 °F 44.6 °F 93% 30.15 in 1.0 mi NNW 3.5 mph - N/A   Overcast
10:53 AM 46.0 °F 44.8 °F 44.1 °F 93% 30.16 in 0.8 mi North 3.5 mph - N/A   Overcast
11:24 AM 46.4 °F 45.2 °F 44.6 °F 93% 30.16 in 1.5 mi NNW 3.5 mph - N/A   Overcast
11:53 AM 46.9 °F - 44.1 °F 90% 30.16 in 1.5 mi North 6.9 mph - N/A   Overcast
12:14 PM 46.4 °F 42.9 °F 44.6 °F 93% 30.15 in 3.0 mi NNW 6.9 mph - N/A   Overcast
12:53 PM 46.9 °F - 45.0 °F 93% 30.15 in 7.0 mi NNW 4.6 mph - N/A   Overcast
1:53 PM 48.0 °F - 45.0 °F 89% 30.14 in 10.0 mi NNW 6.9 mph - N/A   Overcast
2:53 PM 48.0 °F - 45.0 °F 89% 30.14 in 10.0 mi NW 4.6 mph - 0.00 in   Overcast
3:21 PM 48.2 °F - 44.6 °F 87% 30.13 in 10.0 mi NW 5.8 mph - N/A   Overcast
3:41 PM 48.2 °F - 44.6 °F 87% 30.13 in 10.0 mi NW 4.6 mph - N/A   Overcast
3:53 PM 48.9 °F - 45.0 °F 86% 30.13 in 10.0 mi NNW 4.6 mph - N/A   Mostly Cloudy
4:53 PM 50.0 °F - 44.1 °F 80% 30.12 in 10.0 mi Calm Calm - N/A   Mostly Cloudy
5:53 PM 50.0 °F - 43.0 °F 77% 30.11 in 10.0 mi NNE 3.5 mph - N/A   Mostly Cloudy
6:53 PM 48.0 °F - 44.1 °F 86% 30.11 in 10.0 mi Calm Calm - N/A   Mostly Cloudy
7:53 PM 48.0 °F - 44.1 °F 86% 30.10 in 10.0 mi NW 3.5 mph - N/A   Mostly Cloudy
8:53 PM 46.9 °F - 44.1 °F 90% 30.10 in 10.0 mi WNW 3.5 mph - N/A   Overcast
9:36 PM 46.4 °F 44.3 °F 44.6 °F 93% 30.10 in 10.0 mi WNW 4.6 mph - N/A   Overcast
9:53 PM 46.9 °F - 44.1 °F 90% 30.11 in 10.0 mi WNW 4.6 mph - N/A   Overcast
10:53 PM 46.9 °F - 44.1 °F 90% 30.10 in 10.0 mi Calm Calm - N/A   Overcast
11:53 PM 46.9 °F - 44.1 °F 90% 30.10 in 10.0 mi Calm Calm - N/A   Overcast